CYYY

Mont Joli Airport

ICAO Code CYYY
IATA Code YYY
Name Mont Joli Airport
Location Mont-Joli, Quebec, CA
Elevation 172 Feet / 52.4 Meters
Latitude 48.60888889
Longitude -68.20805556
METAR CYYY 122105Z 14019G28KT 15SM -RA FEW022 BKN075 OVC110 13/10 A2952 RMK SC2AC4AC2 -RA INTMT PRESFR SLP999 DENSITY ALT 500FT
Extra information Display Charts
Runway Length Width Surface Elevation
06 6000 ft 150 ft ASP 148 ft
15 3954 ft 150 ft ASP 131 ft
24 6000 ft 150 ft ASP 125 ft
33 3954 ft 150 ft ASP 172 ft

Mandatory Routes

Mont Joli Airport

Direction Destination Level Remark Type Route
ARR FR W H&L RNAV FLEUR T660 KISUV
DEP TO W H&L A120 & ABV RNAV MIVAX
DEP TO W L A100 & BLW KISUV T660 ANATI MIVAX